Zurück zum Katalog

STARLINK-32174

AktivKommunikationVLEO
NORAD 61509·PAYLOAD·🇺🇸 United States

Gestartet Oct 15, 2024 von Cape Canaveral Space Force Station

Loading…

Nächste Überflüge (nächste 24 Stunden)

TLE

AktuellSource: CelesTrak SupGP

Epoche: Sep 14, 2026, 22:55 UTC

1 61509C 24183A   26257.95534722  .00019564  00000+0  57830-3 0  2575
2 61509  53.1589 327.3276 0001162  89.2107 328.2881 15.34366167    16

Verfolge STARLINK-32174 in Echtzeit mit AllMySat

Download on the App Store